Location: St. Louis
(38.6270°N, 90.1994°W)
Time: 13:45:34
(UTC-06:00)

S-56A Canister/Altair - Pass Details

Date: 08 December 2021
Orbit: 633 x 2499 km, 38.9° (Epoch: 19 January)

Event Time Altitude Azimuth Distance (km) Brightness Sun altitude
Rises 22:12:12 0° 240° (WSW) 5,951 12.2 -63.3°
Reaches altitude 10° 22:16:26 10° 239° (WSW) 4,766 11.6 -64.0°
Enters shadow 22:17:17 12° 238° (WSW) 4,521 11.5 -64.2°
Maximum altitude 22:29:06 69° 160° (SSE) 1,795 - -66.1°
Drops below altitude 10° 22:37:31 10° 79° (E) 3,272 - -67.4°
Sets 22:39:54 0° 77° (ENE) 4,030 - -67.8°
